CCSDS_OMM_VERS = 2.0 CREATION_DATE = ORIGINATOR = OBJECT_NAME = APRIZESAT 2 OBJECT_ID = 2004-025A CENTER_NAME = EARTH REF_FRAME = TEME TIME_SYSTEM = UTC MEAN_ELEMENT_THEORY = SGP/SGP4 EPOCH = 2026-09-12T06:12:28.905696 MEAN_MOTION = 14.38066565 ECCENTRICITY = .01052273 INCLINATION = 98.1122 RA_OF_ASC_NODE = 56.359 ARG_OF_PERICENTER = 347.9745 MEAN_ANOMALY = 11.8933 EPHEMERIS_TYPE = 0 CLASSIFICATION_TYPE = U NORAD_CAT_ID = 28366 ELEMENT_SET_NO = 999 REV_AT_EPOCH = 16415 BSTAR = .31293E-4 MEAN_MOTION_DOT = .58000E-6 MEAN_MOTION_DDOT = 0 CCSDS_OMM_VERS = 2.0 CREATION_DATE = ORIGINATOR = OBJECT_NAME = SAUDICOMSAT 1 OBJECT_ID = 2004-025D CENTER_NAME = EARTH REF_FRAME = TEME TIME_SYSTEM = UTC MEAN_ELEMENT_THEORY = SGP/SGP4 EPOCH = 2026-09-12T06:05:22.090560 MEAN_MOTION = 14.55524474 ECCENTRICITY = .00332217 INCLINATION = 98.5792 RA_OF_ASC_NODE = 267.7464 ARG_OF_PERICENTER = 115.892 MEAN_ANOMALY = 244.5708 EPHEMERIS_TYPE = 0 CLASSIFICATION_TYPE = U NORAD_CAT_ID = 28369 ELEMENT_SET_NO = 999 REV_AT_EPOCH = 17679 BSTAR = .58067E-4 MEAN_MOTION_DOT = .20500E-5 MEAN_MOTION_DDOT = 0 CCSDS_OMM_VERS = 2.0 CREATION_DATE = ORIGINATOR = OBJECT_NAME = SAUDICOMSAT 2 OBJECT_ID = 2004-025E CENTER_NAME = EARTH REF_FRAME = TEME TIME_SYSTEM = UTC MEAN_ELEMENT_THEORY = SGP/SGP4 EPOCH = 2026-09-12T06:41:54.172608 MEAN_MOTION = 14.50023268 ECCENTRICITY = .00554821 INCLINATION = 98.6651 RA_OF_ASC_NODE = 269.9913 ARG_OF_PERICENTER = 356.9997 MEAN_ANOMALY = 3.0856 EPHEMERIS_TYPE = 0 CLASSIFICATION_TYPE = U NORAD_CAT_ID = 28370 ELEMENT_SET_NO = 999 REV_AT_EPOCH = 17272 BSTAR = .56488E-4 MEAN_MOTION_DOT = .17300E-5 MEAN_MOTION_DDOT = 0 CCSDS_OMM_VERS = 2.0 CREATION_DATE = ORIGINATOR = OBJECT_NAME = APRIZESAT 1 OBJECT_ID = 2004-025G CENTER_NAME = EARTH REF_FRAME = TEME TIME_SYSTEM = UTC MEAN_ELEMENT_THEORY = SGP/SGP4 EPOCH = 2026-09-12T06:31:24.045312 MEAN_MOTION = 14.51816834 ECCENTRICITY = .00434054 INCLINATION = 98.6322 RA_OF_ASC_NODE = 268.3779 ARG_OF_PERICENTER = 249.9361 MEAN_ANOMALY = 109.7159 EPHEMERIS_TYPE = 0 CLASSIFICATION_TYPE = U NORAD_CAT_ID = 28372 ELEMENT_SET_NO = 999 REV_AT_EPOCH = 17454 BSTAR = .39767E-4 MEAN_MOTION_DOT = .11200E-5 MEAN_MOTION_DDOT = 0 CCSDS_OMM_VERS = 2.0 CREATION_DATE = ORIGINATOR = OBJECT_NAME = NANOSAT-1 OBJECT_ID = 2004-049B CENTER_NAME = EARTH REF_FRAME = TEME TIME_SYSTEM = UTC MEAN_ELEMENT_THEORY = SGP/SGP4 EPOCH = 2026-09-12T02:23:29.877504 MEAN_MOTION = 14.80304213 ECCENTRICITY = .00044535 INCLINATION = 98.2403 RA_OF_ASC_NODE = 33.9557 ARG_OF_PERICENTER = 30.2718 MEAN_ANOMALY = 329.875 EPHEMERIS_TYPE = 0 CLASSIFICATION_TYPE = U NORAD_CAT_ID = 28493 ELEMENT_SET_NO = 999 REV_AT_EPOCH = 16830 BSTAR = .97058E-4 MEAN_MOTION_DOT = .68400E-5 MEAN_MOTION_DDOT = 0 CCSDS_OMM_VERS = 2.0 CREATION_DATE = ORIGINATOR = OBJECT_NAME = SAUDICOMSAT 7 OBJECT_ID = 2007-012C CENTER_NAME = EARTH REF_FRAME = TEME TIME_SYSTEM = UTC MEAN_ELEMENT_THEORY = SGP/SGP4 EPOCH = 2026-09-11T22:07:26.582880 MEAN_MOTION = 14.66197776 ECCENTRICITY = .00543361 INCLINATION = 98.3887 RA_OF_ASC_NODE = 230.8776 ARG_OF_PERICENTER = 285.1796 MEAN_ANOMALY = 74.3401 EPHEMERIS_TYPE = 0 CLASSIFICATION_TYPE = U NORAD_CAT_ID = 31119 ELEMENT_SET_NO = 999 REV_AT_EPOCH = 3514 BSTAR = .74296E-4 MEAN_MOTION_DOT = .36300E-5 MEAN_MOTION_DDOT = 0 CCSDS_OMM_VERS = 2.0 CREATION_DATE = ORIGINATOR = OBJECT_NAME = SAUDICOMSAT 6 OBJECT_ID = 2007-012E CENTER_NAME = EARTH REF_FRAME = TEME TIME_SYSTEM = UTC MEAN_ELEMENT_THEORY = SGP/SGP4 EPOCH = 2026-09-12T04:17:52.512000 MEAN_MOTION = 14.62628284 ECCENTRICITY = .00727912 INCLINATION = 98.4207 RA_OF_ASC_NODE = 224.3612 ARG_OF_PERICENTER = 56.5543 MEAN_ANOMALY = 304.2591 EPHEMERIS_TYPE = 0 CLASSIFICATION_TYPE = U NORAD_CAT_ID = 31121 ELEMENT_SET_NO = 999 REV_AT_EPOCH = 3290 BSTAR = .86986E-4 MEAN_MOTION_DOT = .40600E-5 MEAN_MOTION_DDOT = 0 CCSDS_OMM_VERS = 2.0 CREATION_DATE = ORIGINATOR = OBJECT_NAME = SAUDICOMSAT 5 OBJECT_ID = 2007-012H CENTER_NAME = EARTH REF_FRAME = TEME TIME_SYSTEM = UTC MEAN_ELEMENT_THEORY = SGP/SGP4 EPOCH = 2026-09-12T04:23:17.861568 MEAN_MOTION = 14.68253253 ECCENTRICITY = .0046539 INCLINATION = 98.3598 RA_OF_ASC_NODE = 231.8762 ARG_OF_PERICENTER = 210.6104 MEAN_ANOMALY = 149.2384 EPHEMERIS_TYPE = 0 CLASSIFICATION_TYPE = U NORAD_CAT_ID = 31124 ELEMENT_SET_NO = 999 REV_AT_EPOCH = 3636 BSTAR = .71656E-4 MEAN_MOTION_DOT = .36500E-5 MEAN_MOTION_DDOT = 0 CCSDS_OMM_VERS = 2.0 CREATION_DATE = ORIGINATOR = OBJECT_NAME = SAUDICOMSAT 3 OBJECT_ID = 2007-012J CENTER_NAME = EARTH REF_FRAME = TEME TIME_SYSTEM = UTC MEAN_ELEMENT_THEORY = SGP/SGP4 EPOCH = 2026-09-11T22:11:13.289568 MEAN_MOTION = 14.70813454 ECCENTRICITY = .00398931 INCLINATION = 98.3251 RA_OF_ASC_NODE = 232.1536 ARG_OF_PERICENTER = 136.2763 MEAN_ANOMALY = 224.1614 EPHEMERIS_TYPE = 0 CLASSIFICATION_TYPE = U NORAD_CAT_ID = 31125 ELEMENT_SET_NO = 999 REV_AT_EPOCH = 3757 BSTAR = .82880E-4 MEAN_MOTION_DOT = .45800E-5 MEAN_MOTION_DDOT = 0 CCSDS_OMM_VERS = 2.0 CREATION_DATE = ORIGINATOR = OBJECT_NAME = SAUDICOMSAT 4 OBJECT_ID = 2007-012L CENTER_NAME = EARTH REF_FRAME = TEME TIME_SYSTEM = UTC MEAN_ELEMENT_THEORY = SGP/SGP4 EPOCH = 2026-09-11T22:08:00.738528 MEAN_MOTION = 14.64591046 ECCENTRICITY = .0063113 INCLINATION = 98.4093 RA_OF_ASC_NODE = 229.3075 ARG_OF_PERICENTER = 348.6856 MEAN_ANOMALY = 11.2923 EPHEMERIS_TYPE = 0 CLASSIFICATION_TYPE = U NORAD_CAT_ID = 31127 ELEMENT_SET_NO = 999 REV_AT_EPOCH = 3398 BSTAR = .93222E-4 MEAN_MOTION_DOT = .45500E-5 MEAN_MOTION_DDOT = 0 CCSDS_OMM_VERS = 2.0 CREATION_DATE = ORIGINATOR = OBJECT_NAME = APRIZESAT 4 OBJECT_ID = 2009-041D CENTER_NAME = EARTH REF_FRAME = TEME TIME_SYSTEM = UTC MEAN_ELEMENT_THEORY = SGP/SGP4 EPOCH = 2026-09-12T04:10:02.574624 MEAN_MOTION = 14.83986662 ECCENTRICITY = .00440403 INCLINATION = 98.135 RA_OF_ASC_NODE = 332.2012 ARG_OF_PERICENTER = 40.8709 MEAN_ANOMALY = 319.5793 EPHEMERIS_TYPE = 0 CLASSIFICATION_TYPE = U NORAD_CAT_ID = 35684 ELEMENT_SET_NO = 999 REV_AT_EPOCH = 92426 BSTAR = .59606E-4 MEAN_MOTION_DOT = .44500E-5 MEAN_MOTION_DDOT = 0 CCSDS_OMM_VERS = 2.0 CREATION_DATE = ORIGINATOR = OBJECT_NAME = APRIZESAT 3 OBJECT_ID = 2009-041F CENTER_NAME = EARTH REF_FRAME = TEME TIME_SYSTEM = UTC MEAN_ELEMENT_THEORY = SGP/SGP4 EPOCH = 2026-09-12T00:44:15.960192 MEAN_MOTION = 14.9644458 ECCENTRICITY = .00620614 INCLINATION = 98.2178 RA_OF_ASC_NODE = 52.4925 ARG_OF_PERICENTER = 139.6292 MEAN_ANOMALY = 220.9559 EPHEMERIS_TYPE = 0 CLASSIFICATION_TYPE = U NORAD_CAT_ID = 35686 ELEMENT_SET_NO = 999 REV_AT_EPOCH = 92936 BSTAR = .84057E-4 MEAN_MOTION_DOT = .92200E-5 MEAN_MOTION_DDOT = 0 CCSDS_OMM_VERS = 2.0 CREATION_DATE = ORIGINATOR = OBJECT_NAME = S-NET D OBJECT_ID = 2018-014G CENTER_NAME = EARTH REF_FRAME = TEME TIME_SYSTEM = UTC MEAN_ELEMENT_THEORY = SGP/SGP4 EPOCH = 2026-09-11T17:42:24.757056 MEAN_MOTION = 15.17355487 ECCENTRICITY = .0009886 INCLINATION = 97.526 RA_OF_ASC_NODE = 158.9828 ARG_OF_PERICENTER = 80.4562 MEAN_ANOMALY = 279.7788 EPHEMERIS_TYPE = 0 CLASSIFICATION_TYPE = U NORAD_CAT_ID = 43186 ELEMENT_SET_NO = 999 REV_AT_EPOCH = 47188 BSTAR = .18854E-3 MEAN_MOTION_DOT = .36990E-4 MEAN_MOTION_DDOT = 0 CCSDS_OMM_VERS = 2.0 CREATION_DATE = ORIGINATOR = OBJECT_NAME = S-NET B OBJECT_ID = 2018-014H CENTER_NAME = EARTH REF_FRAME = TEME TIME_SYSTEM = UTC MEAN_ELEMENT_THEORY = SGP/SGP4 EPOCH = 2026-09-12T03:31:13.472544 MEAN_MOTION = 15.17325725 ECCENTRICITY = .00104311 INCLINATION = 97.5264 RA_OF_ASC_NODE = 159.3779 ARG_OF_PERICENTER = 75.2351 MEAN_ANOMALY = 285.0038 EPHEMERIS_TYPE = 0 CLASSIFICATION_TYPE = U NORAD_CAT_ID = 43187 ELEMENT_SET_NO = 999 REV_AT_EPOCH = 47194 BSTAR = .18983E-3 MEAN_MOTION_DOT = .37220E-4 MEAN_MOTION_DDOT = 0 CCSDS_OMM_VERS = 2.0 CREATION_DATE = ORIGINATOR = OBJECT_NAME = S-NET A OBJECT_ID = 2018-014J CENTER_NAME = EARTH REF_FRAME = TEME TIME_SYSTEM = UTC MEAN_ELEMENT_THEORY = SGP/SGP4 EPOCH = 2026-09-11T14:30:11.496672 MEAN_MOTION = 15.17363167 ECCENTRICITY = .00103565 INCLINATION = 97.5276 RA_OF_ASC_NODE = 159.0647 ARG_OF_PERICENTER = 77.4729 MEAN_ANOMALY = 282.7662 EPHEMERIS_TYPE = 0 CLASSIFICATION_TYPE = U NORAD_CAT_ID = 43188 ELEMENT_SET_NO = 999 REV_AT_EPOCH = 47186 BSTAR = .19155E-3 MEAN_MOTION_DOT = .37610E-4 MEAN_MOTION_DDOT = 0 CCSDS_OMM_VERS = 2.0 CREATION_DATE = ORIGINATOR = OBJECT_NAME = S-NET C OBJECT_ID = 2018-014K CENTER_NAME = EARTH REF_FRAME = TEME TIME_SYSTEM = UTC MEAN_ELEMENT_THEORY = SGP/SGP4 EPOCH = 2026-09-11T16:32:49.007904 MEAN_MOTION = 15.17312752 ECCENTRICITY = .00116149 INCLINATION = 97.5291 RA_OF_ASC_NODE = 159.237 ARG_OF_PERICENTER = 70.5531 MEAN_ANOMALY = 289.6956 EPHEMERIS_TYPE = 0 CLASSIFICATION_TYPE = U NORAD_CAT_ID = 43189 ELEMENT_SET_NO = 999 REV_AT_EPOCH = 47042 BSTAR = .19785E-3 MEAN_MOTION_DOT = .38820E-4 MEAN_MOTION_DDOT = 0 CCSDS_OMM_VERS = 2.0 CREATION_DATE = ORIGINATOR = OBJECT_NAME = SALSAT OBJECT_ID = 2020-068K CENTER_NAME = EARTH REF_FRAME = TEME TIME_SYSTEM = UTC MEAN_ELEMENT_THEORY = SGP/SGP4 EPOCH = 2026-09-11T23:28:21.147456 MEAN_MOTION = 15.30885844 ECCENTRICITY = .00094697 INCLINATION = 97.888 RA_OF_ASC_NODE = 263.4175 ARG_OF_PERICENTER = 9.1845 MEAN_ANOMALY = 350.9566 EPHEMERIS_TYPE = 0 CLASSIFICATION_TYPE = U NORAD_CAT_ID = 46495 ELEMENT_SET_NO = 999 REV_AT_EPOCH = 32863 BSTAR = .20261E-3 MEAN_MOTION_DOT = .59680E-4 MEAN_MOTION_DDOT = 0 CCSDS_OMM_VERS = 2.0 CREATION_DATE = ORIGINATOR = OBJECT_NAME = OOV-CUBE (TUBSAT-30) OBJECT_ID = 2024-128F CENTER_NAME = EARTH REF_FRAME = TEME TIME_SYSTEM = UTC MEAN_ELEMENT_THEORY = SGP/SGP4 EPOCH = 2026-09-12T01:54:09.755712 MEAN_MOTION = 15.03087611 ECCENTRICITY = .00324263 INCLINATION = 61.9933 RA_OF_ASC_NODE = 282.5109 ARG_OF_PERICENTER = 153.9439 MEAN_ANOMALY = 206.3293 EPHEMERIS_TYPE = 0 CLASSIFICATION_TYPE = U NORAD_CAT_ID = 60240 ELEMENT_SET_NO = 999 REV_AT_EPOCH = 11917 BSTAR = .97362E-4 MEAN_MOTION_DOT = .11200E-4 MEAN_MOTION_DDOT = 0 CCSDS_OMM_VERS = 2.0 CREATION_DATE = ORIGINATOR = OBJECT_NAME = LPNTSAT-001 (IOD-1) OBJECT_ID = 2026-065A CENTER_NAME = EARTH REF_FRAME = TEME TIME_SYSTEM = UTC MEAN_ELEMENT_THEORY = SGP/SGP4 EPOCH = 2026-09-12T02:42:48.504960 MEAN_MOTION = 15.18901366 ECCENTRICITY = .00179174 INCLINATION = 97.3868 RA_OF_ASC_NODE = 133.7386 ARG_OF_PERICENTER = 63.7198 MEAN_ANOMALY = 296.5875 EPHEMERIS_TYPE = 0 CLASSIFICATION_TYPE = U NORAD_CAT_ID = 68408 ELEMENT_SET_NO = 999 REV_AT_EPOCH = 2545 BSTAR = .98065E-4 MEAN_MOTION_DOT = .19860E-4 MEAN_MOTION_DDOT = 0 CCSDS_OMM_VERS = 2.0 CREATION_DATE = ORIGINATOR = OBJECT_NAME = CHUANG XIN 26 (CX-26) OBJECT_ID = 2026-158A CENTER_NAME = EARTH REF_FRAME = TEME TIME_SYSTEM = UTC MEAN_ELEMENT_THEORY = SGP/SGP4 EPOCH = 2026-09-11T14:36:27.428256 MEAN_MOTION = 14.25129358 ECCENTRICITY = .00051877 INCLINATION = 49.9848 RA_OF_ASC_NODE = 33.8907 ARG_OF_PERICENTER = 148.4258 MEAN_ANOMALY = 211.6968 EPHEMERIS_TYPE = 0 CLASSIFICATION_TYPE = U NORAD_CAT_ID = 69972 ELEMENT_SET_NO = 999 REV_AT_EPOCH = 903 BSTAR = -.10643E-4 MEAN_MOTION_DOT = -.18500E-5 MEAN_MOTION_DDOT = 0